STARLINK-3353 (50807 NORAD) Tracking and Keplerian Element Data

This shows tracking and keplerian element data for the satellite.

Feedback or suggestion? Click here.




ElementValue
Catalog50807
NameSTARLINK-3353
Epoch Orbit130
Epoch Day140.58334491
Epoch Year2022
RAAN275.0632
Inclination53.2187
Eccentricity0.0001939
Argument of Perigee39.2586
Mean Anonmoly162.2621
Mean Motion15.08868056
Decay Rate-0.00069929
L11 50807U 22001E 22140.58334491 -.00069929 00000+0 -44152-2 0 9995
L22 50807 53.2187 275.0632 0001939 39.2586 162.2621 15.08868056 1309

Live tracking and technical data element details for STARLINK-3353 (NORAD 50807). STARLINK-3353 can be tracked NOW for your location showing map with azimuth and elevation plus other details from your city location.

Track the satellite on the map from your city or location and see movement details for azimuth, elevation, latitude, longitude, range, height, and movement on the map or in text.







IsCatalogInMostPopularTable: catalog: 50807, numindb: 17
Update: records affected: 1



GetName: 50807 STARLINK-3353

Hit Count: updated at: Sun, 22 May 2022 03:29:34 GMT